Weather History for Porterville, CA

Change the Weather History Date:

Wednesday, November 27, 2013

  Actual Average Record
Temperature  
Mean Temperature 45 °F -  
Max Temperature 48 °F 61 °F 75 °F (1959)
Min Temperature 42 °F 37 °F 29 °F (1952)
Degree Days  
Heating Degree Days 20    
Moisture  
Dew Point 24 °F    
Average Humidity 42    
Maximum Humidity 46    
Minimum Humidity 39    
Precipitation  
Precipitation 0.00 in - - ()
Sea Level Pressure  
Sea Level Pressure 29.93 in    
Wind  
Wind Speed 3 mph (NE)    
Max Wind Speed 9 mph    
Max Gust Speed -    
Visibility 7 miles    
Events      
Averages and records for this station are not official NWS values.
T = Trace of Precipitation, MM = Missing Value Source: NWS Daily Summary

Daily Weather History Graph

Daily Weather History Graph

Search for Another Location

Airport:

Trip Planner

Search our weather history database for the weather conditions in past years. The results will help you decide how hot, cold, wet, or windy it might be!

Date:

Astronomy

Nov. 27, 2013 Rise Set
Actual Time 6:44 AM PST 4:42 PM PST
Civil Twilight 6:17 AM PST 5:10 PM PST
Nautical Twilight 5:45 AM PST 5:42 PM PST
Astronomical Twilight 5:14 AM PST 6:13 PM PST
Moon 1:01 AM PST (11/27) 1:13 PM PST (11/27)
Length of Visible Light 10h 53m
Length of Day
9h 57m
Waning Crescent, 30% of the Moon is Illuminated
Nov 27
Waning Crescent
Dec 2
New
Dec 9
First Quarter
Dec 17
Full
Dec 25
Last Quarter

Hourly Weather History & Observations

Time (PST) Temp. Windchill Dew Point Humidity Pressure Visibility Wind Dir Wind Speed Gust Speed Precip Events Conditions
12:15 AM 48.2 °F - 24.8 °F 40% 30.08 in 2.0 mi Calm Calm - N/A   Clear
12:35 AM 48.2 °F - 26.6 °F 43% 30.07 in 2.5 mi Calm Calm - N/A   Clear
12:55 AM 48.2 °F - 24.8 °F 40% 30.07 in 2.5 mi Calm Calm - N/A   Clear
1:15 AM 46.4 °F - 24.8 °F 43% 30.06 in 2.5 mi Calm Calm - N/A   Clear
1:35 AM 46.4 °F 45.2 °F 24.8 °F 43% 30.06 in 2.5 mi East 3.5 mph - N/A   Clear
1:55 AM 46.4 °F 44.3 °F 24.8 °F 43% 30.05 in 2.0 mi ESE 4.6 mph - N/A   Clear
2:15 AM 46.4 °F 44.3 °F 24.8 °F 43% 30.04 in 2.5 mi ESE 4.6 mph - N/A   Clear
2:35 AM 46.4 °F 44.3 °F 24.8 °F 43% 30.04 in 2.5 mi SSE 4.6 mph - N/A   Clear
2:55 AM 46.4 °F 43.5 °F 24.8 °F 43% 30.03 in 3.0 mi ESE 5.8 mph - N/A   Clear
3:15 AM 46.4 °F 43.5 °F 24.8 °F 43% 30.02 in 3.0 mi ESE 5.8 mph - N/A   Clear
3:35 AM 46.4 °F 42.9 °F 24.8 °F 43% 30.02 in 3.0 mi ESE 6.9 mph - N/A   Clear
3:55 AM 48.2 °F - 24.8 °F 40% 30.01 in 5.0 mi ESE 4.6 mph - N/A   Clear
4:15 AM 46.4 °F - 24.8 °F 43% 30.02 in 5.0 mi Calm Calm - N/A   Clear
4:35 AM 44.6 °F 42.2 °F 24.8 °F 46% 30.02 in 3.0 mi West 4.6 mph - N/A   Clear
4:55 AM 46.4 °F - 24.8 °F 43% 30.01 in 3.0 mi Calm Calm - N/A   Clear
5:15 AM 46.4 °F - 23.0 °F 40% 30.01 in 4.0 mi Calm Calm - N/A   Clear
5:35 AM 46.4 °F 45.2 °F 23.0 °F 40% 30.00 in 4.0 mi East 3.5 mph - N/A   Clear
5:55 AM 44.6 °F 42.2 °F 23.0 °F 43% 29.99 in 5.0 mi East 4.6 mph - N/A   Clear
6:15 AM 44.6 °F 43.1 °F 23.0 °F 43% 29.99 in 5.0 mi East 3.5 mph - N/A   Clear
6:35 AM 42.8 °F 39.3 °F 21.2 °F 42% 29.99 in 3.0 mi WSW 5.8 mph - N/A   Clear
6:55 AM 42.8 °F 39.3 °F 19.4 °F 39% 29.99 in 1.5 mi WSW 5.8 mph - N/A   Clear
7:15 AM 42.8 °F - 21.2 °F 42% 29.99 in 1.2 mi Calm Calm - N/A   Clear
7:35 AM 42.8 °F - 21.2 °F 42% 29.99 in 1.8 mi Calm Calm - N/A   Clear
7:55 AM 44.6 °F - 23.0 °F 43% 29.99 in 2.0 mi Calm Calm - N/A   Clear
8:15 AM 46.4 °F - 24.8 °F 43% 29.99 in 1.8 mi Calm Calm - N/A   Clear
8:35 AM - - - N/A% 30.00 in 1.8 mi Calm Calm - N/A   Clear
8:55 AM - - - N/A% 29.99 in 2.5 mi Calm Calm - N/A   Clear
9:15 AM - - - N/A% 29.99 in 5.0 mi Calm Calm - N/A   Clear
9:35 AM - - - N/A% 29.99 in 4.0 mi Calm Calm - N/A   Clear
9:55 AM - - - N/A% 29.98 in 5.0 mi Calm Calm - N/A   Clear
10:15 AM - - - N/A% 29.97 in 5.0 mi NNE 4.6 mph - N/A   Clear
10:35 AM - - - N/A% 29.97 in 6.0 mi NW 3.5 mph - N/A   Clear
10:55 AM - - - N/A% 29.95 in 6.0 mi North 3.5 mph - N/A   Clear
11:15 AM - - - N/A% 29.93 in 7.0 mi NNW 4.6 mph - N/A   Clear
11:35 AM - - - N/A% 29.92 in 9.0 mi NNW 5.8 mph - N/A   Clear
11:55 AM - - - N/A% 29.91 in 9.0 mi NW 5.8 mph - N/A   Clear
12:15 PM - - - N/A% 29.90 in 10.0 mi NNW 9.2 mph - N/A   Clear
12:35 PM - - - N/A% 29.89 in 10.0 mi WNW 9.2 mph - N/A   Clear
12:55 PM - - - N/A% 29.89 in 10.0 mi NW 9.2 mph - N/A   Clear
1:15 PM - - - N/A% 29.88 in 10.0 mi NNW 8.1 mph - N/A   Clear
1:35 PM - - - N/A% 29.88 in 10.0 mi NW 5.8 mph - N/A   Clear
1:55 PM - - - N/A% 29.87 in 9.0 mi North 8.1 mph - N/A   Clear
2:15 PM - - - N/A% 29.87 in 10.0 mi North 5.8 mph - N/A   Clear
2:35 PM - - - N/A% 29.86 in 10.0 mi NNE 6.9 mph - N/A   Clear
2:55 PM - - - N/A% 29.86 in 10.0 mi NNE 5.8 mph - N/A   Clear
3:15 PM - - - N/A% 29.85 in 10.0 mi NNE 5.8 mph - N/A   Clear
3:35 PM - - - N/A% 29.84 in 10.0 mi North 5.8 mph - N/A   Clear
3:55 PM - - - N/A% 29.84 in 10.0 mi North 5.8 mph - N/A   Clear
4:15 PM - - - N/A% 29.84 in 10.0 mi NNW 5.8 mph - N/A   Clear
4:35 PM - - - N/A% 29.84 in 10.0 mi North 5.8 mph - N/A   Clear
4:55 PM - - - N/A% 29.84 in 10.0 mi North 5.8 mph - N/A   Clear
5:15 PM - - - N/A% 29.84 in 10.0 mi NNE 3.5 mph - N/A   Clear
5:35 PM - - - N/A% 29.84 in 10.0 mi Calm Calm - N/A   Clear
5:55 PM - - - N/A% 29.84 in 10.0 mi Calm Calm - N/A   Clear
6:15 PM - - - N/A% 29.85 in 10.0 mi Calm Calm - N/A   Clear
6:35 PM - - - N/A% 29.85 in 10.0 mi SE 3.5 mph - N/A   Clear
6:55 PM - - - N/A% 29.86 in 10.0 mi Calm Calm - N/A   Clear
7:15 PM - - - N/A% 29.86 in 10.0 mi SE 4.6 mph - N/A   Clear
7:35 PM - - - N/A% 29.87 in 10.0 mi SE 4.6 mph - N/A   Clear
7:55 PM - - - N/A% 29.87 in 10.0 mi SE 4.6 mph - N/A   Clear
8:15 PM - - - N/A% 29.87 in 10.0 mi Calm Calm - N/A   Clear
8:35 PM - - - N/A% 29.87 in 10.0 mi SE 4.6 mph - N/A   Clear
8:55 PM - - - N/A% 29.87 in 10.0 mi Calm Calm - N/A   Clear
9:15 PM - - - N/A% 29.87 in 10.0 mi Calm Calm - N/A   Clear
9:35 PM - - - N/A% 29.87 in 10.0 mi Calm Calm - N/A   Clear
9:55 PM - - - N/A% 29.87 in 10.0 mi Calm Calm - N/A   Clear
10:15 PM - - - N/A% 29.87 in 10.0 mi Calm Calm - N/A   Clear
10:35 PM - - - N/A% 29.87 in 10.0 mi Calm Calm - N/A   Clear
10:55 PM - - - N/A% 29.87 in 10.0 mi East 3.5 mph - N/A   Clear
11:15 PM - - - N/A% 29.87 in 10.0 mi East 3.5 mph - N/A   Clear
11:35 PM - - - N/A% 29.87 in 10.0 mi ESE 4.6 mph - N/A   Clear
11:55 PM - - - N/A% 29.87 in 10.0 mi Calm Calm - N/A   Clear